Regional Weather Roundup
Issued by NWS Binghamton, NY

Current Version | Previous Version | Text Only | Print | Product List | Glossary On
Versions: 1 2 3 4 5 6 7 8 9 10 11 12 13 14 15 16 17 18 19 20 21 22 23 24 25 26 27 28 29 30 31 32 33 34 35 36 37 38 39 40 41 42 43 44 45 46 47 48 49 50
000
ASUS41 KBGM 041310
RWRBGM

REGIONAL WEATHER ROUNDUP
NATIONAL WEATHER SERVICE BINGHAMTON NY
900 AM EDT WED MAY 04 2016

Note: "fair" indicates few or no clouds below 12,000 feet with no
significant weather and/or obstructions to visibility.

* = Station(s) that does not report precipitation, such as rain,
snow, etc, also no thunder or fog.

NYZ009-015>018-022>025-036-037-044>046-055>057-062-041400
...Central New York...

CITY           SKY/WX    TMP DP  RH WIND       PRES   REMARKS
Binghamton     FOG       47  47 100 SE5       29.74F VSB 3/4
Cortland       PTSUNNY   52  46  82 SE3       29.76R
Dansville      CLOUDY    50  44  80 SE5       29.74F
Elmira         CLOUDY    47  44  90 CALM      29.75S FOG
Ithaca         MOSUNNY   54  45  71 SE8       29.76R
Hamilton       CLOUDY    52  50  93 SE5       29.76S
Hornell        PTSUNNY   48  45  87 CALM      29.77S
Monticello     CLOUDY    46  46 100 SE10      29.80S
Norwich        CLOUDY    48  48 100 CALM      29.77S
Penn Yan       CLOUDY    51  45  79 S3        29.75S
Rome           CLOUDY    50  48  93 SE8       29.78S
Sidney         DRIZZLE   52  52 100 CALM      29.76S
Syracuse       CLOUDY    53  48  83 E5        29.75S
$$

PAZ038>040-043-044-047-048-072-041400
...Northeast Pennsylvania...

CITY           SKY/WX    TMP DP  RH WIND       PRES   REMARKS
Hazleton       CLOUDY    46  46 100 SE6       29.78S
Scranton       CLOUDY    51  47  86 CALM      29.75S
$$
&&
KEY
WCI = Wind Chill Index
VSB = Visibility
HX  = Heat Index
$$



USA.gov is the U.S. government's official web portal to all federal, state and local government web resources and services.